Tillbaka till svenska Fidonet
English   Information   Debug  
FILM   0/18
FNEWS_PUBLISH   4888
FN_SYSOP   42180
FN_SYSOP_OLD1   71952
FTP_FIDO   0/2
FTSC_PUBLIC   0/13962
FUNNY   0/4886
GENEALOGY.EUR   0/71
GET_INFO   105
GOLDED   0/408
HAM   2805/16621
HOLYSMOKE   0/6791
HOT_SITES   0/1
HTMLEDIT   0/71
HUB203   466
HUB_100   264
HUB_400   39
HUMOR   0/29
IC   0/2851
INTERNET   0/424
INTERUSER   0/3
IP_CONNECT   719
JAMNNTPD   0/233
JAMTLAND   0/47
KATTY_KORNER   0/41
LAN   0/16
LINUX-USER   0/19
LINUXHELP   0/1155
LINUX   0/22287
LINUX_BBS   0/957
mail   18.68
mail_fore_ok   249
MENSA   0/341
MODERATOR   0/102
MONTE   0/992
MOSCOW_OKLAHOMA   0/1245
MUFFIN   0/783
MUSIC   0/321
N203_STAT   938
N203_SYSCHAT   313
NET203   321
NET204   69
NET_DEV   0/10
NORD.ADMIN   0/101
NORD.CHAT   0/2572
NORD.FIDONET   189
NORD.HARDWARE   0/28
NORD.KULTUR   0/114
NORD.PROG   0/32
NORD.SOFTWARE   0/88
NORD.TEKNIK   0/58
NORD   0/453
OCCULT_CHAT   0/93
OS2BBS   0/787
OS2DOSBBS   0/580
OS2HW   0/42
OS2INET   0/37
OS2LAN   0/134
OS2PROG   0/36
OS2REXX   0/113
OS2USER-L   207
OS2   0/4829
OSDEBATE   0/18996
PASCAL   0/490
PERL   0/457
PHP   0/45
POINTS   0/405
POLITICS   0/29554
POL_INC   0/14731
PSION   103
R20_ADMIN   1133
R20_AMATORRADIO   0/2
R20_BEST_OF_FIDONET   16
R20_CHAT   0/896
R20_DEPP   0/3
R20_DEV   400
R20_ECHO2   1797
R20_ECHOPRES   0/35
R20_ESTAT   0/719
R20_FIDONETPROG...
...RAM.MYPOINT
  0/2
R20_FIDONETPROGRAM   0/22
R20_FIDONET   0/248
R20_FILEFIND   0/24
R20_FILEFOUND   0/22
R20_HIFI   0/3
R20_INFO2   3690
R20_INTERNET   0/12940
R20_INTRESSE   0/60
R20_INTR_KOM   0/99
R20_KANDIDAT.CHAT   42
R20_KANDIDAT   28
R20_KOM_DEV   112
R20_KONTROLL   0/13360
R20_KORSET   0/18
R20_LOKALTRAFIK   0/24
R20_MODERATOR   0/1852
R20_NC   76
R20_NET200   245
R20_NETWORK.OTH...
...ERNETS
  0/13
R20_OPERATIVSYS...
...TEM.LINUX
  0/44
R20_PROGRAMVAROR   0/1
R20_REC2NEC   534
R20_SFOSM   0/341
R20_SF   0/108
R20_SPRAK.ENGLISH   0/1
R20_SQUISH   107
R20_TEST   2
R20_WORST_OF_FIDONET   20
RAR   0/9
RA_MULTI   106
RA_UTIL   0/162
REGCON.EUR   0/2068
REGCON   0/13
SCIENCE   0/1206
SF   0/239
SHAREWARE_SUPPORT   0/5146
SHAREWRE   0/14
SIMPSONS   0/169
STATS_OLD1   0/2539.065
STATS_OLD2   0/2530
STATS_OLD3   0/2395.095
STATS_OLD4   0/1692.25
SURVIVOR   0/495
SYSOPS_CORNER   0/3
SYSOP   0/84
TAGLINES   0/112
TEAMOS2   0/4530
TECH   0/2617
TEST.444   0/105
TRAPDOOR   0/19
TREK   0/755
TUB   0/290
UFO   0/40
UNIX   0/1316
USA_EURLINK   0/102
USR_MODEMS   0/1
VATICAN   0/2740
VIETNAM_VETS   0/14
VIRUS   0/378
VIRUS_INFO   0/201
VISUAL_BASIC   0/473
WHITEHOUSE   0/5187
WIN2000   0/101
WIN32   0/30
WIN95   0/4291
WIN95_OLD1   0/70272
WINDOWS   0/1517
WWB_SYSOP   0/419
WWB_TECH   0/810
ZCC-PUBLIC   0/1
ZEC   4

 
4DOS   0/134
ABORTION   0/7
ALASKA_CHAT   0/506
ALLFIX_FILE   0/1313
ALLFIX_FILE_OLD1   0/7997
ALT_DOS   0/152
AMATEUR_RADIO   0/1039
AMIGASALE   0/14
AMIGA   0/331
AMIGA_INT   0/1
AMIGA_PROG   0/20
AMIGA_SYSOP   0/26
ANIME   0/15
ARGUS   0/924
ASCII_ART   0/340
ASIAN_LINK   0/651
ASTRONOMY   0/417
AUDIO   0/92
AUTOMOBILE_RACING   0/105
BABYLON5   0/17862
BAG   135
BATPOWER   0/361
BBBS.ENGLISH   0/382
BBSLAW   0/109
BBS_ADS   0/5290
BBS_INTERNET   0/507
BIBLE   0/3563
BINKD   0/1119
BINKLEY   0/215
BLUEWAVE   0/2173
CABLE_MODEMS   0/25
CBM   0/46
CDRECORD   0/66
CDROM   0/20
CLASSIC_COMPUTER   0/378
COMICS   0/15
CONSPRCY   0/899
COOKING   41119
COOKING_OLD1   0/24719
COOKING_OLD2   0/40862
COOKING_OLD3   0/37489
COOKING_OLD4   0/35496
COOKING_OLD5   9370
C_ECHO   0/189
C_PLUSPLUS   0/31
DIRTY_DOZEN   0/201
DOORGAMES   0/2253
DOS_INTERNET   0/196
duplikat   6102
ECHOLIST   0/18295
EC_SUPPORT   0/318
ELECTRONICS   0/359
ELEKTRONIK.GER   1534
ENET.LINGUISTIC   0/13
ENET.POLITICS   0/4
ENET.SOFT   0/11701
ENET.SYSOP   34273
ENET.TALKS   0/32
ENGLISH_TUTOR   0/2000
EVOLUTION   0/1335
FDECHO   0/217
FDN_ANNOUNCE   0/7068
FIDONEWS   24997
FIDONEWS_OLD1   0/49742
FIDONEWS_OLD2   0/35949
FIDONEWS_OLD3   0/30874
FIDONEWS_OLD4   0/37224
FIDO_SYSOP   12921
FIDO_UTIL   0/180
FILEFIND   0/209
FILEGATE   0/212
Möte HAM, 16621 texter
 lista första sista föregående nästa
Text 370, 750 rader
Skriven 2005-04-28 23:31:13 av Amsat List (1:323/120.0)
Ärende: 
========
SB KEPS @ AMSAT  $ORB05118.O
Orbital Elements  05118.OSCAR

HR AMSAT ORBITAL ELEMENTS FOR OSCAR SATELLITES
FROM WA5QGD FORT WORTH,TX April 28, 2005
SEND SUBSCRIBE/UNSUBSCRIBE TO majordomo@amsat.org ONLY
BID: ORB05118.O
TO ALL RADIO AMATEURS BT

Satellite: AO-07
Catalog number: 07530
Epoch time:      05117.71428408
Element set:    0421
Inclination:      101.6309 deg
RA of node:       164.9185 deg
Eccentricity:    0.0012077
Arg of perigee:   333.6832 deg
Mean anomaly:     026.3625 deg
Mean motion:   12.53570894 rev/day
Decay rate:       -2.8e-07 rev/day^2
Epoch rev:           39332
Checksum:              286

Satellite: AO-10
Catalog number: 14129
Epoch time:      05117.68473538
Element set:    0175
Inclination:      027.2606 deg
RA of node:       035.2602 deg
Eccentricity:    0.6033298
Arg of perigee:   184.4450 deg
Mean anomaly:     165.6904 deg
Mean motion:   02.05865354 rev/day
Decay rate:      -1.23e-06 rev/day^2
Epoch rev:           16449
Checksum:              297

Satellite: UO-11
Catalog number: 14781
Epoch time:      05117.74718792
Element set:    0769
Inclination:      098.2017 deg
RA of node:       114.3026 deg
Eccentricity:    0.0009751
Arg of perigee:   154.7657 deg
Mean anomaly:     205.4049 deg
Mean motion:   14.79213847 rev/day
Decay rate:       -3.0e-08 rev/day^2
Epoch rev:           13434
Checksum:              306

Satellite: RS-10/11
Catalog number: 18129
Epoch time:      05118.53343204
Element set:     673
Inclination:      082.9206 deg
RA of node:       274.8560 deg
Eccentricity:    0.0011899
Arg of perigee:   157.2269 deg
Mean anomaly:     202.9415 deg
Mean motion:   13.72757591 rev/day
Decay rate:        1.5e-07 rev/day^2
Epoch rev:           89426
Checksum:              314

Satellite: FO-20
Catalog number: 20480
Epoch time:      05117.55710903
Element set:    0888
Inclination:      099.0208 deg
RA of node:       301.4036 deg
Eccentricity:    0.0540512
Arg of perigee:   354.4220 deg
Mean anomaly:     005.1005 deg
Mean motion:   12.83346205 rev/day
Decay rate:       -2.2e-07 rev/day^2
Epoch rev:           71300
Checksum:              238

Satellite: RS-12/13
Catalog number: 21089
Epoch time:      05117.64795248
Element set:     899
Inclination:      082.9201 deg
RA of node:       308.4038 deg
Eccentricity:    0.0027773
Arg of perigee:   219.0014 deg
Mean anomaly:     140.9139 deg
Mean motion:   13.74449624 rev/day
Decay rate:        2.4e-07 rev/day^2
Epoch rev:           71355
Checksum:              312

Satellite: RS-15
Catalog number: 23439
Epoch time:      05117.67283994
Element set:    0884
Inclination:      064.8180 deg
RA of node:       189.2440 deg
Eccentricity:    0.0162841
Arg of perigee:   325.0772 deg
Mean anomaly:     033.9555 deg
Mean motion:   11.27551242 rev/day
Decay rate:       -3.9e-07 rev/day^2
Epoch rev:           42569
Checksum:              322

Satellite: FO-29
Catalog number: 24278
Epoch time:      05117.69779699
Element set:    0945
Inclination:      098.5471 deg
RA of node:       174.0705 deg
Eccentricity:    0.0350240
Arg of perigee:   307.2964 deg
Mean anomaly:     049.6720 deg
Mean motion:   13.52910078 rev/day
Decay rate:       -1.2e-07 rev/day^2
Epoch rev:           42936
Checksum:              334

Satellite: SO-33
Catalog number: 25509
Epoch time:      05117.78122635
Element set:     356
Inclination:      031.4300 deg
RA of node:       317.5070 deg
Eccentricity:    0.0355373
Arg of perigee:   085.4364 deg
Mean anomaly:     278.6750 deg
Mean motion:   14.27986928 rev/day
Decay rate:       2.73e-06 rev/day^2
Epoch rev:           33961
Checksum:              314

Satellite: AO-40
Catalog number: 26609
Epoch time:      05115.57772974
Element set:     538
Inclination:      008.0750 deg
RA of node:       307.7208 deg
Eccentricity:    0.7942026
Arg of perigee:   031.9448 deg
Mean anomaly:     358.0427 deg
Mean motion:   01.25586181 rev/day
Decay rate:      -1.20e-06 rev/day^2
Epoch rev:            2060
Checksum:              297

/EX
SB KEPS @ AMSAT  $ORB05118.D
Orbital Elements  05118.MICROS

HR AMSAT ORBITAL ELEMENTS FOR THE MICROSATS
FROM WA5QGD FORT WORTH,TX April 28, 2005
SEND SUBSCRIBE/UNSUBSCRIBE TO majordomo@amsat.org ONLY
BID: ORB05118.D
TO ALL RADIO AMATEURS BT

Satellite: UO-14
Catalog number: 20437
Epoch time:      05117.58477616
Element set:    0766
Inclination:      098.1943 deg
RA of node:       130.1377 deg
Eccentricity:    0.0010731
Arg of perigee:   350.4891 deg
Mean anomaly:     009.6088 deg
Mean motion:   14.31407666 rev/day
Decay rate:       -5.5e-07 rev/day^2
Epoch rev:           79679
Checksum:              325

Satellite: AO-16
Catalog number: 20439
Epoch time:      05118.64698585
Element set:     452
Inclination:      098.2097 deg
RA of node:       146.4630 deg
Eccentricity:    0.0011040
Arg of perigee:   355.7031 deg
Mean anomaly:     004.4057 deg
Mean motion:   14.31670426 rev/day
Decay rate:       -3.0e-08 rev/day^2
Epoch rev:           79700
Checksum:              284

Satellite: WO-18
Catalog number: 20441
Epoch time:      05118.79396076
Element set:     646
Inclination:      098.2222 deg
RA of node:       150.9433 deg
Eccentricity:    0.0011795
Arg of perigee:   355.5092 deg
Mean anomaly:     004.5978 deg
Mean motion:   14.31744592 rev/day
Decay rate:        2.7e-07 rev/day^2
Epoch rev:           79708
Checksum:              324

Satellite: LO-19
Catalog number: 20442
Epoch time:      05117.62997955
Element set:     379
Inclination:      098.2290 deg
RA of node:       154.2622 deg
Eccentricity:    0.0012131
Arg of perigee:   357.0832 deg
Mean anomaly:     003.0280 deg
Mean motion:   14.31916509 rev/day
Decay rate:        3.0e-07 rev/day^2
Epoch rev:           79698
Checksum:              300

